Wind_Speed
27 24 31 36 49 48 47 49 48 48 49 49 45 40 38 38 34 28 35 61 77 87 84 84 81 77 72 66 59 58 56 58 58 56 56 59 56 52 47 41 38 34 33 31 30 31 30 28 31 31 28 29 27 27
21 30 34 37 39 43 47 44 43 45 48 46 41 38 40 37 32 28 30 58 70 81 87 84 81 77 71 67 62 60 56 58 59 58 57 58 57 52 44 43 35 35 32 33 34 28 30 29 29 30 29 27 25 24
23 25 29 33 36 37 37 36 38 41 45 42 40 42 39 33 25 25 34 49 62 78 83 81 80 77 73 68 62 61 57 60 61 57 55 54 48 48 43 44 38 29 31 35 31 29 29 28 29 28 28 27 25 23
20 24 24 26 29 33 35 37 38 38 36 35 38 37 33 28 22 27 43 52 53 69 80 80 77 73 69 66 61 59 57 59 60 59 52 53 44 46 47 44 39 33 31 33 32 27 25 25 26 27 26 24 22 22
18 20 23 25 28 31 33 34 33 32 31 32 33 33 30 25 17 26 52 33 52 61 73 74 72 67 62 56 54 53 55 55 59 56 50 50 52 50 51 49 40 35 31 32 29 25 29 27 27 24 24 26 25 25
19 19 20 21 22 23 25 28 29 30 31 30 32 30 26 23 20 30 59 57 57 52 67 68 64 55 39 36 45 49 52 53 57 58 48 49 49 51 51 49 40 36 35 32 34 30 30 31 30 29 27 28 30 31
20 20 20 21 22 23 24 24 24 24 24 25 27 25 24 24 23 34 50 49 40 59 59 65 60 52 42 26 31 49 49 49 51 56 51 47 46 52 43 45 42 41 38 37 40 37 34 33 33 35 33 33 34 36
25 25 25 24 22 20 19 20 21 22 24 25 25 26 25 27 30 36 44 45 51 47 47 57 56 47 30 33 30 39 46 46 49 45 52 51 51 54 51 45 41 40 41 37 38 38 37 38 40 38 38 37 38 41
30 28 26 25 23 21 20 20 21 21 23 29 30 30 31 30 29 42 38 41 51 49 54 54 49 39 34 36 26 38 37 41 46 49 44 47 50 50 43 39 42 44 42 38 41 36 42 42 42 42 42 43 44 46
27 24 21 17 16 16 12 14 20 27 27 28 32 33 29 33 42 52 48 45 45 51 50 47 45 43 38 40 26 32 42 40 43 47 47 48 45 46 43 44 46 42 41 45 42 41 41 41 42 44 46 47 49 51
27 23 20 19 23 25 25 23 30 34 30 30 34 36 53 55 41 31 22 33 50 52 46 47 43 34 34 24 26 32 41 45 45 47 47 48 46 48 50 46 42 38 38 39 42 40 39 41 43 43 45 49 51 51
59 45 35 46 63 71 70 59 51 41 32 40 49 58 46 39 38 33 25 23 24 43 43 25 23 25 17 10 13 21 42 46 45 47 47 40 30 52 45 55 42 42 40 38 39 41 43 45 44 45 48 50 51 51
60 61 73 79 66 63 64 61 53 43 57 60 54 56 47 39 32 18 16 23 20 20 23 21 19 19 18 18 20 29 29 43 38 35 50 55 53 40 37 34 36 39 39 42 43 45 46 44 43 44 47 51 53 55
58 56 52 51 47 40 40 37 40 38 46 43 41 33 27 17 13 11 10 10 16 20 25 25 21 20 20 26 31 27 25 32 43 36 26 29 24 27 32 32 33 32 35 37 39 40 42 44 46 49 50 53 53 50
54 45 43 47 44 39 52 42 35 28 23 26 23 12 13 14 12 13 17 15 13 14 16 17 18 18 16 17 17 22 23 25 24 27 26 25 25 27 31 32 32 33 35 37 37 39 42 44 46 47 46 46 48 51
29 33 36 24 28 28 25 24 25 21 20 23 24 22 18 17 14 12 13 14 11 9 8 9 11 13 16 19 20 23 24 23 20 21 20 19 22 24 26 29 32 34 35 37 40 43 44 41 39 41 45 50 53 53
16 18 18 18 17 15 14 10 9 6 8 9 11 11 9 6 5 7 6 5 2 1 3 9 14 18 19 20 18 20 24 23 22 24 26 25 25 27 29 32 33 35 36 36 35 34 37 42 45 51 56 57 53 53
12 10 12 10 14 13 10 3 2 1 2 1 3 7 7 6 6 8 11 12 12 15 15 14 14 16 23 23 21 21 22 25 25 24 27 31 33 34 34 34 35 35 36 40 43 46 49 51 54 56 57 57 57 56
13 9 10 8 10 8 8 7 9 9 7 6 7 11 14 16 17 16 15 15 16 17 18 19 18 18 19 19 20 21 23 25 26 28 30 32 33 34 35 37 39 41 44 47 49 52 54 55 56 56 57 57 57 58
17 16 14 14 13 13 10 9 6 7 7 8 9 9 9 10 12 14 16 18 17 15 15 17 20 24 26 27 27 27 28 29 31 34 36 38 39 40 41 42 44 48 51 53 54 54 55 56 57 57 58 59 60 61
10 10 9 8 8 8 8 8 8 9 11 13 14 15 16 16 17 17 18 18 20 22 23 25 26 28 29 30 32 34 36 38 39 40 42 43 45 46 48 50 51 52 53 54 55 56 56 57 58 59 59 59 60 61
11 11 11 11 10 10 12 12 12 13 14 15 16 18 20 21 22 24 25 26 28 28 28 29 30 31 33 34 35 36 38 40 41 42 43 45 47 49 50 52 54 55 56 57 57 58 57 57 58 58 60 62 64 66
5 3 5 4 4 6 3 7 7 11 11 12 16 18 21 24 26 29 28 30 31 32 33 34 35 37 38 39 40 41 41 42 43 44 46 48 50 51 53 54 55 55 56 56 57 57 58 59 61 62 64 65 66 66
5 6 4 2 1 4 4 8 8 13 7 9 16 18 22 22 21 22 23 25 28 30 32 32 33 35 37 38 38 40 41 43 44 46 46 48 48 48 49 50 51 52 53 54 56 57 58 59 60 61 62 64 65 67
5 1 2 4 7 10 15 18 20 17 15 17 21 23 25 27 25 30 33 33 35 35 35 36 36 36 37 38 38 38 39 39 40 41 43 44 46 47 48 49 49 50 51 52 54 56 58 60 62 65 67 69 71 72
6 7 9 12 16 19 23 25 21 20 24 25 26 30 32 35 36 39 40 40 39 38 36 34 32 32 33 34 35 35 36 37 37 38 39 39 41 42 44 46 48 51 53 55 58 60 61 63 65 67 68 70 71 72
12 14 17 19 22 23 30 27 25 29 29 30 32 34 37 40 42 40 37 33 30 28 26 25 25 26 27 27 29 30 31 33 35 37 40 42 44 47 49 51 53 54 55 56 57 59 61 61 62 63 65 69 72 75
20 22 24 26 28 28 28 28 30 32 32 34 37 39 41 40 37 35 33 32 31 32 32 33 33 34 35 36 37 39 40 41 43 44 45 46 47 48 49 50 51 52 53 53 53 54 56 59 62 64 64 64 66 68
25 26 28 29 29 30 31 32 31 32 34 36 38 39 38 37 36 36 37 38 39 39 39 38 39 40 40 41 41 42 43 43 44 45 46 46 46 46 46 45 45 46 48 51 53 53 48 45 47 51 54 57 60 63
29 29 28 29 32 32 30 31 33 35 36 37 38 36 35 35 35 36 36 36 35 35 35 35 34 35 35 36 36 37 37 38 37 38 37 38 38 40 41 43 45 44 40 36 37 40 42 44 47 50 54 56 59 62
28 28 29 29 28 29 30 33 35 36 35 34 34 34 34 32 31 29 27 26 25 25 25 26 26 27 27 27 28 29 30 31 32 34 35 37 37 36 32 27 27 30 32 34 34 35 37 41 45 48 51 54 56 57
24 23 24 25 27 30 32 31 31 31 33 34 32 29 27 25 23 21 21 20 21 21 22 23 23 25 26 28 29 31 32 32 31 29 25 21 20 22 24 25 27 29 31 31 32 33 36 40 43 46 49 51 51 51
21 22 25 28 30 28 27 28 30 33 33 29 26 26 23 21 19 19 20 21 22 23 24 25 26 26 26 26 25 24 20 15 14 16 18 19 22 24 25 26 28 29 30 31 32 33 35 38 41 44 47 49 49 48
Wind_Direction
90 116 139 149 153 160 169 171 178 183 185 189 193 201 210 211 216 218 209 204 210 209 206 206 207 210 211 211 210 211 212 212 219 222 221 219 227 233 238 242 244 245 247 250 252 259 267 278 285 287 279 274 272 269
96 111 125 140 155 161 163 170 178 182 185 189 198 205 205 209 213 211 208 197 200 208 207 207 206 210 211 213 212 216 211 214 225 225 221 224 228 233 239 245 246 245 247 253 252 263 267 278 289 283 276 272 267 265
115 126 140 145 151 160 167 170 169 174 184 192 200 201 202 205 205 212 206 197 197 204 207 207 210 212 215 215 211 215 212 216 221 227 228 230 230 236 236 243 248 250 249 249 251 257 269 277 282 278 269 267 264 263
118 123 134 144 152 158 163 166 170 173 179 191 197 195 195 196 203 202 195 192 192 198 204 208 211 211 215 217 212 213 213 216 222 228 228 228 230 234 241 245 249 248 248 245 249 260 266 266 267 268 265 262 264 268
124 124 129 136 148 154 159 164 168 176 183 189 189 187 192 194 192 187 177 184 202 200 198 207 209 211 215 223 216 217 216 220 223 225 229 225 226 232 237 244 244 251 252 249 255 258 262 265 265 262 265 269 269 273
134 133 136 139 145 153 164 172 180 187 189 185 186 188 192 194 194 186 184 188 196 193 196 201 207 213 220 220 216 211 212 222 224 222 226 225 227 233 239 242 246 250 255 253 250 251 260 263 264 266 266 266 271 277
144 140 143 143 146 151 155 160 165 166 170 176 180 188 191 195 196 190 186 190 191 186 189 198 201 201 193 194 209 213 216 221 226 224 223 229 225 229 239 243 248 253 258 261 244 249 254 263 264 264 267 271 274 276
131 136 134 133 135 139 144 151 159 166 175 181 185 190 191 188 196 187 184 192 168 176 189 199 203 202 208 207 216 220 222 226 226 225 225 228 229 233 239 239 245 253 259 262 248 243 249 256 262 265 269 273 277 280
129 129 131 136 139 143 149 162 173 185 194 184 169 176 180 190 183 175 172 180 171 176 189 194 193 188 186 189 219 215 219 224 226 224 227 228 228 233 237 241 248 254 265 261 255 246 250 251 260 266 271 275 279 281
126 123 125 129 139 143 145 139 142 154 143 149 162 176 175 160 149 133 149 155 173 184 188 185 186 190 192 204 213 216 213 218 220 222 228 230 228 230 240 246 252 258 256 250 250 266 263 258 263 269 274 277 278 279
116 118 122 122 120 121 122 126 139 149 142 136 138 142 134 123 121 129 138 173 183 185 172 174 178 177 187 193 213 216 232 226 225 223 226 229 236 238 240 246 254 251 255 252 251 256 257 260 265 270 275 276 276 280
83 86 94 101 105 103 93 90 92 96 111 119 119 132 119 120 129 133 146 169 190 197 180 199 203 201 218 246 249 249 231 226 228 227 232 228 243 238 250 238 251 243 244 245 252 260 267 267 270 273 275 278 282 284
84 90 107 108 95 87 89 91 98 113 124 122 127 133 129 123 120 113 128 150 179 199 188 182 199 215 230 233 244 225 219 221 225 247 237 234 246 241 227 229 232 241 253 258 261 267 274 278 277 277 278 279 280 281
89 98 108 92 89 85 83 97 113 125 130 125 121 120 124 134 144 146 141 169 169 161 173 181 196 205 215 222 226 229 214 219 227 209 226 229 251 259 263 269 270 268 269 271 271 273 273 273 272 274 277 280 281 282
94 94 95 97 96 108 106 86 94 93 93 109 139 140 130 118 133 134 134 137 151 171 176 182 206 210 219 227 236 246 250 245 242 249 256 256 253 251 250 252 256 260 262 263 265 269 270 271 273 274 277 281 282 284
90 95 106 90 90 91 91 86 81 86 87 110 116 117 110 111 114 119 122 103 128 142 165 191 202 207 216 227 230 235 239 249 257 256 253 256 262 264 264 262 261 261 264 266 266 268 275 278 278 278 279 282 287 289
99 97 101 89 91 89 90 88 80 64 60 90 119 114 102 97 138 162 166 186 177 111 257 251 238 228 233 234 234 235 237 243 255 253 254 265 270 268 267 268 268 268 270 271 274 277 281 280 275 276 281 286 287 286
91 104 102 94 85 88 88 94 295 346 306 252 185 199 213 241 252 249 239 241 252 259 258 258 250 232 224 223 232 248 248 250 255 256 258 261 265 267 270 272 274 277 282 285 286 284 280 280 281 283 284 285 285 285
152 147 144 145 183 178 179 221 231 271 287 279 271 255 257 263 260 252 250 253 246 239 239 246 248 243 238 242 252 256 257 256 256 258 261 264 267 269 272 278 281 279 279 279 280 280 281 282 283 283 282 282 281 281
192 196 197 201 213 221 229 234 233 237 241 235 235 235 232 236 241 241 244 246 247 239 238 246 252 250 251 260 263 259 261 264 263 263 265 266 270 274 276 276 276 276 277 278 278 279 280 279 278 277 277 278 279 280
177 181 187 193 199 210 215 217 224 230 238 244 249 254 258 257 257 256 256 256 255 254 254 253 252 253 256 259 261 260 260 262 264 265 267 269 271 272 273 273 273 274 275 275 275 274 273 273 275 277 279 281 283 286
217 225 238 245 258 260 260 260 265 261 257 256 255 255 255 257 258 259 259 261 262 263 262 260 259 259 260 260 260 261 261 262 262 263 265 266 267 268 268 268 268 269 269 270 271 273 276 278 281 284 287 289 290 290
158 182 157 173 219 251 270 289 294 287 288 283 283 285 286 285 284 280 279 275 271 266 262 259 259 259 260 261 262 262 262 263 262 262 262 262 263 263 264 266 267 270 273 277 280 283 286 287 289 290 290 290 289 289
140 143 138 110 311 21 359 353 346 347 328 331 341 333 322 308 299 295 298 297 289 283 278 275 273 272 269 265 262 261 260 261 261 262 265 268 271 275 277 280 282 284 286 287 287 287 288 288 288 288 289 289 289 289
196 227 357 338 334 338 342 338 338 330 315 314 320 322 323 318 308 312 306 297 291 285 281 277 275 273 272 271 271 271 271 272 272 273 275 275 276 277 278 279 280 281 283 284 286 287 288 288 289 290 290 291 291 292
259 294 320 322 325 327 331 327 321 316 314 309 305 310 310 309 305 303 302 299 291 287 284 279 276 274 272 272 272 272 272 273 274 275 277 278 280 281 283 284 285 286 286 287 287 288 290 291 292 292 292 292 292 292
290 301 309 314 319 316 325 319 307 310 305 299 294 294 298 300 299 299 297 292 289 286 284 282 280 279 278 278 278 279 280 281 283 284 285 285 285 285 285 286 286 287 289 290 291 292 293 294 295 295 295 296 295 294
301 308 308 309 307 305 302 300 297 299 300 298 296 296 298 298 296 293 289 287 286 286 285 284 284 284 284 285 286 286 286 286 286 286 286 287 287 288 289 289 291 292 292 293 294 295 297 298 299 299 299 300 300 300
301 301 300 296 295 296 299 299 297 296 297 296 297 297 297 294 292 290 288 287 286 285 284 284 283 283 283 283 284 284 285 286 287 288 288 289 290 290 291 293 294 296 298 298 299 300 302 305 308 309 309 309 309 307
293 295 295 299 302 300 297 297 299 299 300 301 301 299 297 295 293 290 287 285 284 284 285 286 286 285 285 285 286 286 287 289 291 292 293 294 295 297 298 298 299 300 302 304 306 308 310 314 317 318 319 318 318 317
297 299 301 299 296 297 299 302 305 307 307 305 304 302 300 299 296 293 290 289 289 289 289 289 290 291 292 292 292 293 293 293 294 295 297 298 299 299 303 306 308 309 311 312 313 316 320 324 326 327 328 328 327 326
293 292 293 296 301 304 310 313 314 314 314 313 310 307 307 305 298 295 293 293 294 294 294 295 296 296 296 297 297 298 299 300 301 303 305 310 313 313 314 315 317 318 319 320 321 323 326 330 333 336 338 338 338 338
289 295 299 304 310 312 311 316 318 321 321 316 313 313 311 308 305 302 299 297 295 296 297 297 298 299 300 301 303 305 308 313 318 319 320 320 322 322 323 323 322 323 324 324 325 328 332 336 340 343 346 348 349 350
Height
5230 5227 5232 5241 5254 5270 5284 5300 5314 5328 5342 5358 5371 5381 5390 5399 5405 5412 5419 5430 5451 5472 5493 5509 5522 5536 5549 5564 5579 5591 5595 5600 5604 5611 5619 5624 5630 5637 5642 5647 5652 5656 5659 5661 5664 5664 5667 5670 5670 5669 5668 5666 5665 5664
5254 5253 5255 5262 5271 5282 5294 5306 5318 5331 5345 5358 5369 5378 5387 5396 5403 5409 5415 5426 5443 5465 5482 5500 5515 5529 5542 5554 5567 5575 5589 5596 5600 5604 5610 5615 5625 5631 5638 5640 5646 5650 5652 5655 5658 5660 5661 5662 5663 5661 5660 5659 5658 5658
5269 5270 5273 5277 5284 5292 5301 5311 5322 5334 5347 5358 5368 5377 5386 5394 5402 5408 5414 5425 5436 5458 5479 5493 5508 5520 5531 5546 5559 5568 5580 5587 5591 5596 5606 5614 5621 5628 5631 5634 5639 5643 5645 5646 5650 5653 5655 5655 5655 5654 5654 5653 5652 5652
5278 5280 5284 5288 5294 5301 5309 5318 5328 5339 5349 5359 5368 5377 5387 5394 5401 5406 5414 5425 5437 5454 5469 5486 5500 5516 5528 5538 5554 5564 5573 5578 5585 5590 5598 5606 5614 5621 5624 5627 5632 5637 5638 5640 5641 5646 5648 5647 5646 5647 5647 5647 5647 5648
5285 5288 5292 5297 5303 5309 5317 5325 5333 5342 5351 5360 5369 5378 5386 5393 5398 5404 5417 5429 5436 5447 5465 5484 5499 5512 5524 5535 5548 5558 5567 5573 5578 5585 5593 5599 5606 5612 5615 5619 5623 5629 5632 5634 5637 5639 5637 5640 5640 5640 5641 5642 5642 5641
5290 5294 5299 5304 5309 5316 5323 5330 5337 5344 5353 5361 5370 5378 5385 5390 5396 5401 5409 5419 5433 5447 5466 5482 5498 5513 5524 5533 5544 5552 5559 5564 5570 5580 5587 5593 5598 5604 5607 5611 5617 5621 5623 5626 5627 5629 5629 5631 5633 5634 5633 5633 5634 5633
5297 5302 5307 5312 5318 5323 5329 5335 5342 5348 5355 5363 5371 5378 5384 5390 5396 5401 5411 5424 5435 5449 5465 5481 5495 5511 5524 5532 5540 5548 5554 5559 5565 5573 5582 5586 5591 5593 5596 5604 5609 5612 5615 5615 5617 5619 5620 5623 5624 5624 5624 5625 5624 5624
5304 5309 5314 5319 5325 5330 5336 5341 5347 5351 5358 5365 5372 5378 5384 5391 5397 5404 5418 5431 5442 5457 5470 5482 5498 5515 5524 5533 5540 5544 5550 5555 5560 5566 5572 5577 5582 5587 5590 5597 5601 5603 5605 5606 5607 5609 5611 5612 5613 5615 5615 5614 5613 5612
5311 5316 5322 5327 5332 5336 5340 5345 5350 5353 5357 5364 5372 5379 5386 5393 5401 5412 5424 5434 5447 5462 5472 5486 5501 5514 5522 5529 5532 5538 5544 5549 5554 5559 5563 5569 5573 5578 5586 5589 5591 5595 5595 5598 5599 5598 5600 5601 5603 5603 5603 5602 5600 5599
5322 5326 5331 5335 5339 5343 5347 5351 5357 5360 5362 5368 5375 5383 5391 5399 5409 5424 5438 5448 5457 5465 5479 5491 5502 5513 5520 5524 5529 5534 5538 5541 5544 5551 5556 5561 5565 5573 5577 5578 5580 5584 5586 5587 5587 5589 5590 5590 5592 5592 5591 5589 5587 5585
5331 5334 5337 5340 5345 5350 5354 5358 5363 5369 5375 5380 5385 5394 5407 5417 5425 5441 5452 5460 5465 5473 5486 5498 5505 5511 5519 5524 5528 5530 5533 5536 5539 5543 5549 5551 5556 5562 5566 5569 5572 5572 5574 5575 5577 5579 5580 5580 5580 5579 5577 5575 5574 5572
5344 5344 5347 5351 5357 5361 5367 5372 5379 5388 5391 5397 5404 5417 5424 5429 5442 5451 5461 5470 5477 5483 5490 5498 5504 5509 5513 5517 5520 5522 5525 5529 5533 5537 5543 5546 5549 5554 5556 5559 5560 5561 5564 5566 5568 5569 5569 5568 5567 5567 5566 5564 5562 5560
5370 5368 5370 5369 5372 5378 5386 5394 5402 5409 5413 5418 5426 5432 5439 5448 5454 5462 5471 5479 5484 5486 5493 5499 5505 5509 5512 5515 5517 5517 5518 5523 5528 5530 5531 5538 5543 5543 5545 5546 5549 5552 5554 5555 5556 5556 5556 5555 5555 5554 5552 5550 5548 5545
5394 5394 5394 5393 5398 5400 5404 5410 5415 5421 5429 5434 5441 5448 5454 5459 5463 5469 5475 5480 5485 5489 5495 5499 5502 5505 5507 5511 5512 5515 5516 5519 5522 5524 5527 5530 5532 5535 5537 5539 5541 5542 5543 5544 5545 5545 5544 5544 5543 5541 5539 5537 5534 5531
5414 5414 5414 5416 5420 5422 5424 5427 5433 5438 5445 5450 5456 5459 5462 5467 5469 5473 5477 5481 5485 5489 5492 5497 5501 5503 5505 5507 5508 5509 5511 5514 5518 5520 5523 5525 5528 5530 5531 5532 5533 5534 5535 5535 5534 5534 5532 5530 5529 5527 5526 5523 5520 5517
5430 5431 5433 5433 5436 5439 5442 5445 5449 5452 5457 5459 5462 5465 5469 5472 5475 5479 5482 5484 5488 5491 5494 5497 5499 5501 5502 5504 5506 5507 5509 5510 5512 5514 5516 5517 5519 5520 5521 5522 5523 5524 5523 5523 5522 5520 5519 5517 5515 5513 5511 5509 5505 5501
5439 5441 5443 5444 5445 5448 5451 5453 5456 5458 5462 5464 5466 5469 5472 5475 5478 5481 5484 5486 5488 5490 5492 5495 5496 5497 5498 5500 5501 5503 5504 5506 5507 5508 5509 5510 5512 5512 5513 5513 5512 5511 5511 5509 5507 5505 5504 5504 5502 5499 5496 5493 5488 5484
5446 5448 5450 5451 5453 5454 5456 5458 5461 5462 5464 5466 5469 5471 5474 5476 5479 5481 5483 5485 5487 5489 5491 5493 5494 5493 5494 5496 5497 5498 5498 5499 5500 5500 5501 5501 5501 5501 5501 5500 5499 5498 5497 5495 5494 5493 5492 5489 5487 5484 5480 5476 5472 5468
5451 5453 5454 5455 5457 5458 5461 5462 5463 5462 5464 5465 5467 5470 5471 5473 5476 5478 5479 5481 5483 5484 5486 5486 5487 5488 5489 5490 5490 5491 5491 5491 5491 5491 5490 5490 5490 5489 5489 5488 5487 5486 5484 5482 5481 5479 5476 5473 5470 5467 5463 5460 5455 5451
5452 5454 5455 5456 5458 5459 5460 5461 5463 5464 5464 5466 5467 5469 5470 5472 5473 5474 5476 5477 5478 5480 5480 5480 5482 5483 5483 5483 5483 5483 5482 5481 5482 5482 5481 5481 5481 5479 5477 5476 5474 5473 5471 5469 5467 5464 5461 5458 5454 5450 5446 5442 5438 5434
5453 5453 5455 5456 5457 5459 5459 5460 5462 5462 5463 5464 5465 5466 5467 5467 5468 5469 5470 5471 5472 5472 5473 5474 5474 5474 5474 5474 5474 5473 5473 5473 5472 5472 5471 5470 5468 5467 5465 5463 5461 5459 5457 5454 5451 5449 5445 5441 5437 5433 5429 5424 5419 5414
5451 5452 5453 5454 5454 5455 5456 5457 5458 5458 5460 5460 5461 5461 5462 5462 5462 5463 5463 5464 5463 5464 5465 5465 5465 5464 5464 5464 5463 5463 5462 5461 5460 5459 5458 5456 5454 5452 5450 5448 5446 5443 5440 5437 5434 5431 5428 5424 5419 5415 5410 5405 5400 5394
5451 5452 5453 5453 5453 5453 5453 5454 5455 5454 5455 5454 5454 5454 5454 5453 5453 5453 5453 5453 5453 5453 5454 5454 5453 5453 5452 5451 5450 5449 5448 5446 5445 5444 5443 5441 5439 5437 5434 5432 5429 5426 5423 5420 5416 5413 5409 5405 5400 5396 5390 5385 5379 5373
5453 5453 5453 5453 5453 5453 5453 5453 5453 5453 5452 5452 5451 5450 5449 5448 5447 5446 5445 5444 5443 5442 5441 5440 5439 5439 5438 5437 5436 5435 5434 5433 5431 5430 5428 5426 5424 5422 5419 5416 5413 5409 5406 5402 5399 5395 5391 5386 5382 5376 5371 5365 5360 5354
5454 5452 5454 5453 5453 5453 5452 5451 5451 5450 5449 5448 5447 5445 5444 5443 5441 5439 5437 5435 5433 5431 5430 5428 5427 5426 5425 5423 5422 5421 5420 5418 5417 5415 5413 5411 5409 5406 5404 5401 5398 5394 5391 5387 5383 5379 5374 5369 5363 5357 5351 5345 5338 5331
5450 5450 5450 5450 5449 5449 5448 5447 5446 5445 5443 5442 5440 5438 5435 5433 5430 5428 5426 5423 5421 5419 5417 5415 5413 5412 5411 5409 5408 5407 5406 5404 5403 5401 5399 5397 5394 5392 5389 5386 5383 5379 5375 5371 5366 5361 5356 5350 5344 5337 5330 5323 5316 5309
5446 5446 5446 5446 5445 5444 5443 5441 5439 5438 5436 5433 5431 5428 5426 5423 5419 5417 5413 5411 5409 5408 5406 5404 5403 5401 5400 5399 5398 5396 5394 5393 5391 5389 5386 5384 5381 5378 5374 5371 5366 5362 5358 5353 5348 5343 5337 5330 5323 5316 5309 5301 5293 5285
5442 5442 5442 5441 5440 5438 5435 5433 5431 5429 5426 5423 5421 5417 5415 5411 5409 5406 5403 5401 5399 5398 5396 5395 5393 5391 5390 5388 5387 5385 5382 5380 5378 5375 5372 5369 5365 5362 5358 5354 5350 5345 5341 5336 5331 5325 5319 5312 5305 5297 5289 5279 5270 5259
5437 5436 5436 5434 5432 5430 5428 5426 5423 5420 5417 5414 5410 5407 5404 5400 5397 5394 5392 5389 5387 5385 5383 5383 5381 5379 5377 5374 5372 5370 5368 5366 5363 5360 5357 5354 5350 5347 5343 5339 5335 5330 5325 5319 5314 5308 5302 5295 5289 5281 5272 5262 5251 5239
5431 5429 5427 5425 5424 5421 5419 5416 5413 5410 5406 5403 5399 5395 5391 5388 5384 5381 5378 5376 5373 5372 5370 5369 5367 5365 5363 5361 5359 5357 5354 5352 5349 5346 5343 5340 5337 5333 5329 5325 5320 5316 5311 5305 5300 5295 5289 5282 5274 5265 5255 5244 5232 5219
5423 5421 5419 5417 5415 5412 5410 5407 5403 5399 5395 5391 5387 5384 5380 5376 5372 5369 5367 5365 5363 5361 5359 5358 5356 5354 5352 5350 5348 5346 5344 5341 5339 5336 5333 5329 5325 5321 5318 5314 5310 5306 5301 5296 5291 5285 5279 5272 5263 5254 5243 5230 5217 5203
5415 5413 5412 5410 5407 5404 5401 5397 5393 5389 5385 5381 5376 5372 5369 5366 5363 5361 5359 5358 5356 5354 5352 5350 5348 5346 5344 5342 5339 5337 5334 5331 5328 5325 5322 5319 5317 5314 5310 5306 5302 5298 5293 5288 5282 5276 5270 5262 5254 5244 5233 5221 5207 5194
5408 5407 5405 5402 5399 5397 5394 5391 5386 5382 5376 5371 5368 5365 5362 5359 5356 5355 5353 5351 5349 5347 5345 5343 5340 5338 5336 5333 5330 5328 5326 5324 5322 5319 5317 5314 5311 5307 5303 5299 5295 5290 5285 5280 5274 5268 5261 5254 5246 5237 5226 5214 5202 5189